Find Starlink 37242

NORAD ID: 68729 Int'l Des: 2026-082 Owner: SPXS Country: US Constellation: starlink operational
LEOCIRCULARRETROGRADE

リアルタイム位置

3D地球を読み込み中...

Starlink 37242について

説明を読み込み中...

次回通過

Passes for default location (London). Set your location on the main map for personalized predictions.

高度履歴

Loading altitude history...

軌道要素

1 68729C 26082A 26105.45812500 .00370180 00000+0 43501-3 0 1052
2 68729 97.2884 326.8849 0010804 272.0873 341.2561 16.08342933 16
Epoch: Apr 15, 2026 • Age: 16 hours

現在のステータス

高度 266.7 km
速度 7.75 km/s
衛星直下点 -59.27°S, 119.45°W
打ち上げ日 Apr 15, 2026
運用期間 N/A
タイプ internet

技術仕様

分類 Payload
質量 575.00 kg
乾燥質量 530.00 kg
総質量 575.00 kg
長さ 0.30 m
直径 4.10 m
スパン 29.00 m
形状 Box + pan
製造者 SPXS
バスタイプ Starlink V2MO
フェーズステータス In Orbit
所有者/国 SPXS/US

Most Searched